BREEZE-KM DEB, 41721

Orbit data source: Space-Track

BREEZE-KM DEB, 41721 is space debris in LEO originally from a launch on Tue, 31 Mar 2015 UTC launched from the Plesetsk Missile And Space Complex (PKMTR). Debris objects in space refer to the collection of defunct objects orbiting the Earth. Examples of debris include non-operational satellites, rocket bodies, and fragments generated from explosions, collisions, or faulty payload assembly.

Loading next visibility...
Identifier
41721, 2015-020J
Orbit
LEO
Country
Flag of CISCIS
Related business
Manufacturer
Khrunichev
Mission
Spacecraft
Bus & Motor
Unknown
Mass
Unknown
Launch date (UTC)
2015-03-31 (10 years ago)
Launch vehicle
Unknown
Launch site
Plesetsk Missile And Space Complex (PKMTR)
Object type
Payload
Rocket body
Debris
Shape & HBR
Unknown
Radar Cross Section
Small (<0.1 m²)

Expand to show TLE details & history
Last TLE update: 17 hours ago

TLE from 17 hours ago
0 BREEZE-KM DEB
1 41721U 15020J   25243.21201029  .00000045  00000-0  13268-3 0  9998
2 41721  82.4876  67.0675 0245613  88.9187 274.0038 12.74724519475243
Epoch: 2025-08-31T05:05Z
TLE epoch observation values (Epoch: 2025-08-31T05:05:17.689Z)
Latitude
-0.00001°
Longitude
11.1086°
Altitude
1,356.882 km
Speed
7.184 km/s
True Right ascension
04h 28m 16s
True Declination
0° 00' 00"
Sunlit
Object was in daylight at epoch
Visualization orbit readout
Latitude
Unknown
Longitude
Unknown
Altitude
Unknown
Speed
Unknown
Apparent Right ascension
Unknown
Apparent Declination
Unknown
Sunlit
N/A
Visualization observer readout
Local Sidereal Time
13:53:39
Azimuth
Unknown
Elevation
Unknown
Doppler factor
Unknown
Orbital elements
Apogee altitude
1,550.118 km
Perigee altitude
1,169.998 km
Semi-major axis
7,738.195 km
Eccentricity
0.02456
Inclination
82.4876°
RAAN
67.0675°
Arg. of periapsis
88.9187°
True anomaly
271.19125°
Mean anomaly
274.0038°
Eccentric anomaly
272.59799°
Mean motion
3.18848 °/min
Orbital period
112.91 mins
BSTAR
0.00013268
Loading maneuver chart data...
Computing Atmospheric mass density...
Loading historical data...
Loading historical data...
Loading historical data...
Loading historical data...
Loading historical data...
Loading historical data...
Loading historical data...

Documentation

Showing up to 5 results
|